Location: Sternwarte_Laufen
(47.9344°N, 12.9346°E)
Time: 15:17:05
(UTC+02:00)

ISS - Pass Details

Date: 22 March 2017
Orbit: 399 x 409 km, 51.6° (Epoch: 29 March)

Event Time Altitude Azimuth Distance (km) Brightness Sun altitude
Exits shadow 03:46:47 24° 121° (ESE) 893 -1.9 -23.3°
Drops below altitude 10° 03:48:14 10° 119° (ESE) 1,472 -0.6 -23.1°
Sets 03:50:19 0° 118° (ESE) 2,332 0.5 -22.8°
